#timestamp,LO_Frequency,Hit,StdDev 
1545094815.1,286047001.2,P
1545094816.0,286047001.2,Y
1545094835.8,286046999.4,P
1545094855.6,286046995.0,P
1545094875.5,286046997.3,N
1545094895.3,286046997.8,N
1545094915.1,286046998.8,N
1545094935.9,286046997.0,N
1545094955.7,286046997.1,N
1545094975.6,286046998.2,N
1545094995.4,286046998.7,N
1545095015.2,286046997.4,N
1545095035.1,286046997.9,N
1545095036.0,286046997.9,N
1545095055.8,286046996.0,N
1545095075.6,286046996.2,N
1545095095.5,286046995.4,Y
1545095115.3,286046998.6,P
1545095135.2,286046999.1,N
1545095155.0,286046999.1,N
1545095155.9,286046999.1,N
1545095175.7,286046998.9,N
1545095195.6,286046998.4,Y
1545095215.4,286047002.3,P
1545095235.3,286047000.9,N
1545095255.1,286047000.0,N
1545095256.0,286047000.0,N
1545095275.8,286047002.0,N
1545095295.7,286047004.2,Y
1545095315.5,286047002.3,P
1545095335.4,286047002.7,P
1545095355.2,286046999.8,N
1545095375.0,286047002.8,N
1545095375.9,286047002.8,N
1545095395.8,286047000.2,N
1545095415.6,286047002.5,N
1545095435.4,286047002.8,N
1545095455.3,286047002.6,N
1545095475.1,286047003.9,Y
1545095495.9,286047002.5,P
1545095515.7,286047002.3,P
1545095535.5,286046999.9,N
1545095555.4,286047002.6,N
1545095575.2,286047002.8,N
1545095595.1,286046999.3,N
1545095596.0,286046999.3,N
1545095615.8,286046998.1,N
1545095635.6,286046998.4,N
1545095655.5,286047000.3,N
1545095675.3,286047000.5,N
1545095695.1,286046998.1,N
1545095715.9,286047001.9,N
1545095735.7,286047002.1,N
1545095755.6,286047002.2,N
1545095775.4,286047001.6,N
1545095795.2,286047002.0,N
1545095815.1,286046999.9,N
1545095816.0,286046999.9,N
1545095835.8,286046999.8,N
1545095855.7,286047000.2,N
1545095875.5,286047001.9,N
1545095895.3,286047003.0,N
1545095915.2,286047002.3,N
1545095935.0,286047002.7,N
1545095935.9,286047002.7,N
1545095955.7,286047000.0,N
1545095975.6,286047011.9,Y
1545095995.4,286046999.2,P
1545096015.3,286046995.0,P
1545096035.1,286046995.2,N
1545096036.0,286046995.2,N
1545096055.8,286046994.4,N
1545096075.7,286046993.3,N
1545096095.5,286046993.5,N
1545096115.4,286046995.5,N
1545096135.2,286046997.6,N
1545096155.0,286046996.1,N
1545096155.9,286046996.1,N
1545096175.8,286046998.0,N
1545096195.6,286046997.3,N
1545096215.4,286046995.7,N
1545096235.3,286046995.6,N
1545096255.1,286046995.8,N
1545096275.9,286046996.0,N
1545096325.7,286046994.3,E
1545096335.6,286046995.7,N
1545096355.5,286046999.7,P
1545096375.3,286047004.4,N
1545096395.2,286047003.4,N
1545096415.9,286047003.6,N
1545096435.7,286047004.4,N
1545096455.6,286047002.1,N
1545096475.4,286047000.5,N
1545096495.2,286046998.1,N
1545096515.1,286047002.4,N
1545096516.0,286047002.4,N
1545096535.8,286047001.3,N
1545096555.7,286047004.3,N
1545096575.5,286047002.4,N
1545096595.3,286047002.5,N
1545096615.2,286047000.7,N
1545096635.0,286046998.4,N
1545096635.9,286046998.4,N
1545096655.8,286047001.1,N
1545096675.6,286047000.7,N
1545096695.4,286047000.0,N
1545096715.3,286047001.2,N
1545096735.1,286047000.5,N
1545096755.8,286046998.5,N
1545096775.7,286047000.6,N
1545096795.5,286047002.0,N
1545096815.4,286047001.5,N
1545096835.2,286047005.6,N
1545096855.0,286047003.1,N
1545096855.9,286047003.1,N
1545096875.8,286047005.8,N
1545096895.6,286047005.7,N
1545096915.5,286047003.4,N
1545096935.3,286047004.4,N
1545096955.1,286047003.3,N
1545096975.9,286047001.4,N
1545096995.7,286047004.3,N
1545097015.5,286047002.1,N
1545097035.4,286047003.2,N
1545097055.2,286047004.4,N
1545097075.1,286047003.5,N
1545097076.0,286047003.5,N
1545097095.8,286047003.9,N
1545097115.6,286047001.7,N
1545097135.5,286047003.9,N
1545097155.3,286047003.2,N
1545097175.2,286047004.3,N
1545097195.9,286047004.1,N
1545097215.7,286047003.2,N
1545097235.6,286047004.1,N
1545097255.4,286047003.2,N
1545097275.2,286047004.1,N
1545097295.1,286047004.2,N
1545097296.0,286047004.2,N
1545097315.8,286047003.4,N
1545097335.7,286047005.5,Y
1545097355.5,286047001.5,P
1545097375.3,286047001.8,N
1545097395.2,286047002.8,N
1545097415.0,286047000.8,N
1545097415.9,286047000.8,N
1545097435.8,286046998.4,N
1545097455.6,286047000.3,N
1545097475.4,286047001.1,N
1545097495.3,286046998.3,N
1545097515.1,286046999.2,N
1545097535.8,286046996.9,N
1545097555.7,286046997.0,N
1545097575.5,286047000.8,N
1545097595.4,286047001.1,N
1545097615.2,286046998.1,N
1545097635.0,286046999.5,N
1545097635.9,286046999.5,N
1545097655.8,286046997.4,N
1545097675.6,286046998.6,N
1545097695.4,286046998.5,N
1545097715.3,286046998.3,N
1545097735.1,286046998.5,N
1545097755.9,286047000.2,N
1545097775.7,286047000.4,N
1545097795.5,286046999.0,N
1545097815.4,286046996.6,N
1545097835.2,286047001.1,N
1545097855.1,286046998.9,N
1545097856.0,286046998.9,N
1545097875.8,286047000.7,N
1545097895.6,286046998.7,N
1545097915.5,286046999.0,N
1545097935.3,286046996.6,N
1545097955.1,286046998.8,N
1545097975.9,286046999.5,N
1545097995.7,286046998.1,N
1545098015.6,286047000.8,N
1545098035.4,286047002.3,N
1545098055.2,286047002.7,N
1545098075.1,286046999.7,N
1545098076.0,286046999.7,N
1545098095.8,286047002.6,N
1545098115.7,286047001.3,N
1545098135.5,286047004.0,N
1545098155.3,286047001.5,N
1545098175.2,286047001.5,N
1545098195.0,286047002.4,N
1545098195.9,286047002.4,N
1545098245.8,286047000.9,E
1545098255.7,286046998.8,N
1545098275.5,286046996.7,P
1545098295.4,286046998.4,N
1545098315.2,286046998.9,N
1545098335.0,286047000.9,N
1545098336.0,286047000.9,N
1545098355.8,286046999.9,N
1545098375.6,286047002.4,N
1545098395.5,286047004.1,N
